Home > Weather > York > Past weeks

Flag for United Kingdom Weather for the Past 2 Weeks in York, England, United Kingdom

Now
45 °F

Partly sunny.


Feels Like: 41 °F
Forecast: 41 / 60 °F
Wind: 6 mph from West

Location: Linton-On-Ouse

Current Time: May 3, 2016 at 7:59:18 AM

Latest Report: May 3, 2016 at 6:50 AM


Visibility: N/A

Pressure: 30.12 "Hg

Humidity: 81%

Dew Point: 39 °F

Location of YorkLocation

Historic Weather in York — Graph

°F

York Temperature Yesterday

Maximum temperature yesterday: 57 °F (at 9:50 AM)
Minimum temperature yesterday: 45 °F (at 11:50 PM)
Average temperature yesterday: 53 °F

High & Low Weather Summary for the Past Weeks

 TemperatureHumidityPressure
High61 °F (Apr 21, 2:50 PM)100% (Apr 20, 5:50 AM)30.48 "Hg (Apr 20, 5:50 AM)
Low27 °F (Apr 28, 4:50 AM)31% (Apr 19, 5:50 PM)29.53 "Hg (Apr 29, 8:50 AM)
Average44 °F69%30.06 "Hg
* Reported Apr 18 5:50 AM — May 3 5:50 AM, York, Weather by CustomWeather, © 2016

Note: Actual official high and low records may vary slightly from our data, if they occured in-between our weather recording intervals... More about our weather records

Advertising

York Weather History for the Previous 24 Hours

Scroll right to see more
 ConditionsComfort  
Time TempWeatherWind HumidityBarometerVisibility
5:50 AM
Tue, May 3
45 °FPassing clouds.6 mph76%30.09 "HgN/A
4:50 AM43 °FPassing clouds.10 mph76%30.09 "HgN/A
3:50 AM43 °FPassing clouds.8 mph76%30.09 "HgN/A
2:50 AM45 °FClear.10 mph71%30.07 "HgN/A
12:50 AM43 °FClear.6 mph76%30.07 "HgN/A
11:50 PM
Mon, May 2
45 °FClear.10 mph71%30.04 "HgN/A
10:50 PM46 °FPassing clouds.12 mph66%30.04 "HgN/A
9:50 PM46 °FPassing clouds.12 mph71%30.01 "HgN/A
8:50 PM48 °FPassing clouds.13 mph62%29.98 "HgN/A
7:50 PM52 °FSunny.12 mph50%29.95 "HgN/A
6:50 PM54 °FSunny.15 mph44%29.95 "HgN/A
5:50 PM55 °FPassing clouds.21 mph41%29.92 "HgN/A
4:50 PM55 °FScattered clouds.17 mph44%29.92 "HgN/A
3:50 PM57 °FPassing clouds.15 mph41%29.92 "HgN/A
2:50 PM57 °FPartly sunny.15 mph59%29.92 "HgN/A
1:50 PM54 °FPartly sunny.17 mph63%29.92 "HgN/A
12:50 PM52 °FPartly sunny.15 mph82%29.89 "HgN/A
11:50 AM57 °FPartly sunny.20 mph63%29.89 "HgN/A
10:50 AM57 °FPartly sunny.21 mph63%29.89 "HgN/A
9:50 AM57 °FPartly sunny.18 mph67%29.89 "HgN/A
8:50 AM55 °FOvercast.15 mph72%29.92 "HgN/A
7:50 AM54 °FPartly sunny.15 mph77%29.92 "HgN/A
Weather by CustomWeather, © 2016

See weather overviewHow to use our weather pages